Flag for Kuwait Weather past 2 weeks in Kuwait City, Kuwait

Now
72 °F

Sunny.


Feels Like: 74 °F
Forecast: 50 / 69 °F
Wind: 16 mph from North

Location: Kuwait International Airport

Current Time: Feb 1, 2015 at 4:47:37 PM

Latest Report: Feb 1, 2015 at 4:00 PM


Visibility: 10 mi

Pressure: 30.09 "Hg

Humidity: 19%

Dew point: 27 °F

Location of Kuwait CityLocation

Historic Weather in Kuwait City — Graph

°F

Kuwait City temperature yesterday

Maximum temperature yesterday: 75 °F (at 2:00 PM)
Minimum temperature yesterday: 61 °F (at 12:00 AM)
Average temperature yesterday: 67 °F

Past Weeks' High & Low Weather Summary

 TemperatureHumidityPressure
High86 °F (Jan 30, 3:00 PM)100% (Jan 25, 12:00 AM)30.27 "Hg (Jan 25, 12:00 AM)
Low34 °F (Jan 22, 6:00 AM)13% (Jan 29, 2:00 PM)29.83 "Hg (Jan 29, 2:00 PM)
Average58 °F55%30.10 "Hg
* Reported Jan 17 4:00 PM — Feb 1 4:00 PM, Kuwait City, Weather by CustomWeather, © 2014

Note: Actual official high and low records may vary slightly from our data, if they occured in-between our weather recording intervals... More about our weather records

Advertising

Kuwait City weather history for previous 24 hours

 ConditionsComfort  
Time TempWeatherWind HumidityBarometerVisibility
4:00 PM
Feb 1
72 °FSunny.16 mph19%30.09 "Hg10 mi
3:00 PM72 °FSunny.17 mph19%30.09 "Hg10 mi
2:00 PM72 °FSunny.18 mph22%30.09 "Hg10 mi
1:00 PM70 °FSunny.18 mph23%30.12 "Hg10 mi
12:00 PM68 °FSunny.18 mph28%30.15 "Hg10 mi
11:00 AM64 °FSunny.17 mph37%30.18 "Hg10 mi
10:00 AM61 °FSunny.16 mph48%30.21 "Hg10 mi
9:00 AM59 °FSunny.15 mph51%30.21 "Hg10 mi
8:00 AM57 °FSunny.14 mph59%30.18 "Hg10 mi
7:00 AM55 °FSunny.10 mph59%30.18 "Hg10 mi
6:00 AM55 °FClear.12 mph59%30.15 "Hg10 mi
5:00 AM57 °FClear.14 mph59%30.15 "Hg10 mi
4:00 AM59 °FClear.14 mph55%30.15 "Hg10 mi
3:00 AM59 °FClear.14 mph55%30.15 "Hg10 mi
2:00 AM59 °FClear.13 mph55%30.15 "Hg10 mi
1:00 AM61 °FClear.14 mph48%30.15 "Hg10 mi
12:00 AM63 °FClear.13 mph45%30.15 "Hg10 mi
11:00 PM
Jan 31
64 °FClear.12 mph37%30.15 "Hg10 mi
10:00 PM66 °FClear.10 mph35%30.12 "Hg10 mi
9:00 PM66 °FClear.10 mph32%30.12 "Hg10 mi
8:00 PM68 °FClear.10 mph24%30.12 "Hg10 mi
7:00 PM70 °FPassing clouds.9 mph21%30.12 "HgN/A
6:00 PM72 °FPartly cloudy.10 mph22%30.09 "HgN/A
5:00 PM73 °FSunny.10 mph20%30.09 "Hg10 mi
4:00 PM75 °FSunny.13 mph18%30.07 "Hg10 mi
Weather by CustomWeather, © 2014

See weather overviewHow to use our weather pages